TimeCST,TemperatureF,Dew PointF,Humidity,Sea Level PressureIn,VisibilityMPH,Wind Direction,Wind SpeedMPH,Gust SpeedMPH,PrecipitationIn,Events,Conditions,WindDirDegrees,DateUTC
12:53 AM,24.1,19.0,81,30.28,10.0,WNW,6.9,-,0.00,,Clear,300,2013-11-26 06:53:00
1:53 AM,24.1,19.0,81,30.28,9.0,WNW,6.9,-,0.00,Snow,Light Snow,300,2013-11-26 07:53:00
2:53 AM,24.1,19.0,81,30.28,10.0,NW,8.1,-,0.00,,Clear,310,2013-11-26 08:53:00
3:53 AM,23.0,18.0,81,30.29,10.0,NW,5.8,-,0.00,,Clear,310,2013-11-26 09:53:00
4:53 AM,23.0,18.0,81,30.30,10.0,NW,8.1,-,0.00,,Clear,310,2013-11-26 10:53:00
5:53 AM,23.0,18.0,81,30.32,10.0,NW,8.1,-,0.00,,Clear,310,2013-11-26 11:53:00
6:53 AM,23.0,18.0,81,30.34,9.0,WNW,9.2,-,0.00,Snow,Light Snow,300,2013-11-26 12:53:00
7:53 AM,25.0,19.0,78,30.37,9.0,NW,8.1,-,0.00,,Clear,320,2013-11-26 13:53:00
8:53 AM,30.0,21.9,72,30.39,10.0,North,17.3,-,N/A,,Clear,350,2013-11-26 14:53:00
9:53 AM,34.0,23.0,64,30.40,9.0,NNW,23.0,29.9,0.00,,Clear,340,2013-11-26 15:53:00
10:53 AM,36.0,21.9,57,30.41,9.0,North,24.2,31.1,N/A,,Mostly Cloudy,10,2013-11-26 16:53:00
11:35 AM,37.4,21.2,52,30.36,9.0,North,24.2,31.1,N/A,,Scattered Clouds,350,2013-11-26 17:35:00
11:53 AM,36.0,21.0,55,30.41,9.0,North,25.3,-,N/A,,Mostly Cloudy,360,2013-11-26 17:53:00
12:53 PM,37.9,17.1,43,30.40,10.0,North,24.2,32.2,N/A,,Mostly Cloudy,10,2013-11-26 18:53:00
1:53 PM,39.9,15.1,36,30.38,10.0,North,20.7,32.2,N/A,,Clear,360,2013-11-26 19:53:00
2:53 PM,39.0,10.0,30,30.39,10.0,North,25.3,32.2,N/A,,Clear,350,2013-11-26 20:53:00
3:53 PM,37.9,7.0,28,30.40,9.0,North,18.4,-,0.00,,Clear,360,2013-11-26 21:53:00
4:53 PM,35.1,8.1,33,30.43,10.0,North,17.3,-,N/A,,Clear,360,2013-11-26 22:53:00
5:53 PM,28.9,10.0,45,30.44,10.0,North,10.4,-,N/A,,Clear,360,2013-11-26 23:53:00
6:53 PM,26.1,10.0,51,30.46,10.0,North,8.1,-,N/A,,Clear,360,2013-11-27 00:53:00
7:53 PM,23.0,10.0,58,30.48,10.0,NNW,4.6,-,N/A,,Clear,340,2013-11-27 01:53:00
8:53 PM,21.0,10.0,63,30.49,10.0,NNW,8.1,-,N/A,,Clear,340,2013-11-27 02:53:00
9:53 PM,19.9,8.1,60,30.50,10.0,WNW,4.6,-,N/A,,Clear,300,2013-11-27 03:53:00
10:53 PM,18.0,7.0,62,30.51,10.0,NW,4.6,-,0.00,,Clear,310,2013-11-27 04:53:00
11:53 PM,17.1,7.0,65,30.51,10.0,NW,3.5,-,0.00,,Clear,310,2013-11-27 05:53:00